Location: Garbet
(42.8837°N, 1.2115°E)
Time: 22:35:30
(UTC+00:00)

Cosmos 1953 Rocket - Visible Passes

Search period start: 14 March 2026 00:00
Search period end: 24 March 2026 00:00
Orbit: 597 x 628 km, 82.5° (Epoch: 14 March)

Date Brightness Start Highest point End Pass type
(mag) Time Alt. Az. Time Alt. Az. Time Alt. Az.
14 Mar 6.6 05:06:57 10° NNE 05:10:02 19° ENE 05:13:08 10° ESE visible
14 Mar 3.8 19:14:31 10° SSW 19:18:46 68° W 19:23:04 10° N visible
15 Mar 5.8 05:21:32 10° NNE 05:25:27 31° ENE 05:29:22 10° SE visible
15 Mar 5.1 19:30:05 10° SW 19:34:04 37° WNW 19:38:05 10° N visible
16 Mar 4.5 05:36:27 10° N 05:40:46 54° E 05:45:06 10° SSE visible
16 Mar 6.1 19:46:05 10° SW 19:49:26 22° WNW 19:52:49 10° NNW visible
17 Mar 6.9 20:02:51 10° W 20:04:55 13° WNW 20:06:58 10° NW visible
18 Mar 6.8 04:30:24 10° NNE 04:33:11 16° ENE 04:35:58 10° ESE visible
18 Mar 3.7 18:37:41 10° S 18:41:58 80° W 18:46:18 10° N visible
19 Mar 6.0 04:44:51 10° NNE 04:48:37 27° ENE 04:52:23 10° SE visible
19 Mar 4.9 18:53:08 10° SSW 18:57:13 44° WNW 19:01:22 10° N visible
20 Mar 4.8 04:59:42 10° N 05:03:58 46° ENE 05:08:13 10° SSE visible
20 Mar 6.1 19:09:01 10° SW 19:12:34 25° WNW 19:16:11 10° NNW visible
21 Mar 3.7 05:14:48 10° N 05:19:14 83° E 05:23:39 10° S visible
21 Mar 6.8 19:25:29 10° WSW 19:28:01 15° WNW 19:30:35 10° NNW visible
22 Mar 6.9 03:53:55 10° NE 03:56:19 14° ENE 03:58:43 10° ESE visible
23 Mar 6.1 04:08:12 10° NNE 04:11:47 24° ENE 04:15:21 10° SE visible
